This is the latest recevied weather packets stored in our database for station/object HB9FHL-13. If no packets are shown the sender has not sent any weather packets the latest 10 day(s).
| Time | Temp. | Humidity | Pressure | Rain* | Wind** | Luminosity | Snow |
|---|---|---|---|---|---|---|---|
| 1788054369 | 20° C | - | 1016.6 hPa | 0 mm | - | - | - |
| 1788054068 | 20° C | - | 1020.7 hPa | 0 mm | - | - | - |
| 1788053768 | 20° C | - | 1021.3 hPa | 0 mm | - | - | - |
| 1788053467 | 20.56° C | - | 1020.1 hPa | 0 mm | - | - | - |
| 1788053215 | 20.56° C | - | 1020.2 hPa | 0 mm | - | - | - |
| 1788053167 | 20.56° C | - | 1020.2 hPa | 0 mm | - | - | - |
| 1788052903 | 20.56° C | - | 1017.6 hPa | 0 mm | - | - | - |
| 1788052866 | 20.56° C | - | 1017.6 hPa | 0 mm | - | - | - |
| 1788052566 | 20.56° C | - | 1021.5 hPa | 0 mm | - | - | - |
| 1788052265 | 21.11° C | - | 1026.1 hPa | 0 mm | - | - | - |
| 1788051965 | 20.56° C | - | 1010.9 hPa | 0 mm | - | - | - |
| 1788051664 | 19.44° C | - | 1018.2 hPa | 0 mm | - | - | - |
| 1788051364 | 20° C | - | 1016.8 hPa | 0 mm | - | - | - |
| 1788051064 | 20° C | - | 1016.9 hPa | 0 mm | - | - | - |
| 1788050763 | 20.56° C | - | 1020.5 hPa | 0 mm | - | - | - |
| 1788050510 | 20.56° C | - | 1017.2 hPa | 0 mm | - | - | - |
| 1788050462 | 20.56° C | - | 1017.2 hPa | 0 mm | - | - | - |
| 1788050160 | 20° C | - | 1022.8 hPa | 0 mm | - | - | - |
| 1788049860 | 20° C | - | 1022.6 hPa | 0 mm | - | - | - |
| 1788049559 | 20° C | - | 1017.8 hPa | 0 mm | - | - | - |
| 1788049259 | 20° C | - | 1019.5 hPa | 0 mm | - | - | - |
| 1788048958 | 20° C | - | 1021.8 hPa | 0 mm | - | - | - |
| 1788048703 | 20° C | - | 1015.9 hPa | 0 mm | - | - | - |
| 1788048669 | 20° C | - | 1015.9 hPa | 0 mm | - | - | - |
| 1788048355 | 20.56° C | - | 1022.8 hPa | 0 mm | - | - | - |
* Rain since midnight (hover to see other rain measurements)
** Current wind speed in m/s (hover to see current wind gust speed)